Location: Ethel Rock
(53.4667°N, 4.5667°W)
Time: 00:12:47
(UTC+00:00)

NOSS 3-2 (A) - Pass Details

Date: 24 October 2020
Orbit: 792 x 1416 km, 63.4° (Epoch: 22 November)

Event Time Altitude Azimuth Distance (km) Brightness Sun altitude
Exits shadow 05:39:06 15° 248° (WSW) 2,271 4.9 -13.0°
Maximum altitude 05:44:12 63° 327° (NNW) 1,097 3.6 -12.3°
Drops below altitude 10° 05:51:07 10° 48° (NE) 2,981 6.7 -11.2°
Sets 05:54:04 0° 52° (NE) 4,041 7.5 -10.8°
